Time,TemperatureF,DewpointF,PressureIn,WindDirection,WindDirectionDegrees,WindSpeedMPH,WindSpeedGustMPH,Humidity,HourlyPrecipIn,Conditions,Clouds,dailyrainin,SolarRadiationWatts/m^2,SoftwareType,DateUTC
2013-05-31 00:02:00,48.0,40.0,-100.00,WSW,255,0.0,0.0,75,0.00,,,0.00,9.000000,,2013-05-31 08:02:00,
2013-05-31 00:11:00,48.0,40.0,-100.00,WSW,255,0.0,0.0,75,0.00,,,0.00,9.000000,,2013-05-31 08:11:00,
2013-05-31 00:21:00,48.0,40.0,-100.00,WSW,255,0.0,0.0,75,0.00,,,0.00,9.000000,,2013-05-31 08:21:00,
2013-05-31 00:52:00,43.0,40.0,-100.00,SSW,197,2.0,4.0,89,0.00,,,0.00,0.000000,,2013-05-31 08:52:00,
2013-05-31 01:01:00,43.0,40.0,-100.00,SSW,197,2.0,4.0,89,0.00,,,0.00,0.000000,,2013-05-31 09:01:00,
2013-05-31 01:11:00,43.0,40.0,-100.00,SSW,197,2.0,4.0,89,0.00,,,0.00,0.000000,,2013-05-31 09:11:00,
2013-05-31 01:21:00,43.0,40.0,-100.00,SSW,197,2.0,4.0,89,0.00,,,0.00,0.000000,,2013-05-31 09:21:00,
2013-05-31 01:53:00,42.0,41.0,-100.00,South,189,2.0,4.0,95,0.00,,,0.00,0.000000,,2013-05-31 09:53:00,
2013-05-31 02:02:00,42.0,41.0,-100.00,South,189,2.0,4.0,95,0.00,,,0.00,0.000000,,2013-05-31 10:02:00,
2013-05-31 02:12:00,42.0,41.0,-100.00,South,189,2.0,4.0,95,0.00,,,0.00,0.000000,,2013-05-31 10:12:00,
2013-05-31 02:22:00,42.0,41.0,-100.00,South,189,2.0,4.0,95,0.00,,,0.00,0.000000,,2013-05-31 10:22:00,
2013-05-31 02:52:00,42.0,41.0,-100.00,South,191,2.0,6.0,95,0.00,,,0.00,0.000000,,2013-05-31 10:52:00,
2013-05-31 03:01:00,42.0,41.0,-100.00,South,191,2.0,6.0,95,0.00,,,0.00,0.000000,,2013-05-31 11:01:00,
2013-05-31 03:11:00,42.0,41.0,-100.00,South,191,2.0,6.0,95,0.00,,,0.00,0.000000,,2013-05-31 11:11:00,
2013-05-31 03:22:00,42.0,41.0,-100.00,South,191,2.0,6.0,95,0.00,,,0.00,0.000000,,2013-05-31 11:22:00,
2013-05-31 03:52:00,39.0,37.0,-100.00,SSW,205,2.0,5.0,92,0.00,,,0.00,0.000000,,2013-05-31 11:52:00,
2013-05-31 04:01:00,39.0,37.0,-100.00,SSW,205,2.0,5.0,92,0.00,,,0.00,0.000000,,2013-05-31 12:01:00,
2013-05-31 04:11:00,39.0,37.0,-100.00,SSW,205,2.0,5.0,92,0.00,,,0.00,0.000000,,2013-05-31 12:11:00,
2013-05-31 04:21:00,39.0,37.0,-100.00,SSW,205,2.0,5.0,92,0.00,,,0.00,0.000000,,2013-05-31 12:21:00,
2013-05-31 04:52:00,39.0,38.0,-100.00,South,176,2.0,4.0,97,0.00,,,0.00,1.000000,,2013-05-31 12:52:00,
2013-05-31 05:01:00,39.0,38.0,-100.00,South,176,2.0,4.0,97,0.00,,,0.00,1.000000,,2013-05-31 13:01:00,
2013-05-31 05:11:00,39.0,38.0,-100.00,South,176,2.0,4.0,97,0.00,,,0.00,1.000000,,2013-05-31 13:11:00,
2013-05-31 05:21:00,39.0,38.0,-100.00,South,176,2.0,4.0,97,0.00,,,0.00,1.000000,,2013-05-31 13:21:00,
2013-05-31 05:52:00,38.0,37.0,-100.00,South,190,1.0,3.0,96,0.00,,,0.00,10.000000,,2013-05-31 13:52:00,
2013-05-31 06:02:00,38.0,37.0,-100.00,South,190,1.0,3.0,96,0.00,,,0.00,10.000000,,2013-05-31 14:02:00,
2013-05-31 06:11:00,38.0,37.0,-100.00,South,190,1.0,3.0,96,0.00,,,0.00,10.000000,,2013-05-31 14:11:00,
2013-05-31 06:21:00,38.0,37.0,-100.00,South,190,1.0,3.0,96,0.00,,,0.00,10.000000,,2013-05-31 14:21:00,
2013-05-31 06:52:00,39.0,39.0,-100.00,SSE,153,2.0,4.0,99,0.00,,,0.00,28.000000,,2013-05-31 14:52:00,
2013-05-31 07:01:00,39.0,39.0,-100.00,SSE,153,2.0,4.0,99,0.00,,,0.00,28.000000,,2013-05-31 15:01:00,
2013-05-31 07:11:00,39.0,39.0,-100.00,SSE,153,2.0,4.0,99,0.00,,,0.00,28.000000,,2013-05-31 15:11:00,
2013-05-31 07:21:00,39.0,39.0,-100.00,SSE,153,2.0,4.0,99,0.00,,,0.00,28.000000,,2013-05-31 15:21:00,
2013-05-31 07:53:00,44.0,42.0,-100.00,SSE,164,1.0,3.0,94,-99.99,,,0.00,83.000000,,2013-05-31 15:53:00,
2013-05-31 08:03:00,44.0,42.0,-100.00,SSE,164,1.0,3.0,94,-99.99,,,0.00,83.000000,,2013-05-31 16:03:00,
2013-05-31 08:12:00,44.0,42.0,-100.00,SSE,164,1.0,3.0,94,-99.99,,,0.00,83.000000,,2013-05-31 16:12:00,
2013-05-31 08:22:00,44.0,42.0,-100.00,SSE,164,1.0,3.0,94,-99.99,,,0.00,83.000000,,2013-05-31 16:22:00,
2013-05-31 08:52:00,52.0,47.0,-100.00,NNW,336,3.0,6.0,82,0.00,,,0.00,230.000000,,2013-05-31 16:52:00,
2013-05-31 09:02:00,52.0,47.0,-100.00,NNW,336,3.0,6.0,82,0.00,,,0.00,230.000000,,2013-05-31 17:02:00,
2013-05-31 09:12:00,52.0,47.0,-100.00,NNW,336,3.0,6.0,82,0.00,,,0.00,230.000000,,2013-05-31 17:12:00,
2013-05-31 09:22:00,52.0,47.0,-100.00,NNW,336,3.0,6.0,82,0.00,,,0.00,230.000000,,2013-05-31 17:22:00,
2013-05-31 09:52:00,53.0,47.0,-100.00,NNW,342,3.0,7.0,80,0.00,,,0.00,388.000000,,2013-05-31 17:52:00,
2013-05-31 10:01:00,53.0,47.0,-100.00,NNW,342,3.0,7.0,80,0.00,,,0.00,388.000000,,2013-05-31 18:01:00,
2013-05-31 10:11:00,53.0,47.0,-100.00,NNW,342,3.0,7.0,80,0.00,,,0.00,388.000000,,2013-05-31 18:11:00,
2013-05-31 10:21:00,53.0,47.0,-100.00,NNW,342,3.0,7.0,80,0.00,,,0.00,388.000000,,2013-05-31 18:21:00,
2013-05-31 10:52:00,56.0,46.0,-100.00,North,5,3.0,7.0,70,0.00,,,0.00,550.000000,,2013-05-31 18:52:00,
2013-05-31 11:01:00,56.0,46.0,-100.00,North,5,3.0,7.0,70,0.00,,,0.00,550.000000,,2013-05-31 19:01:00,
2013-05-31 11:11:00,56.0,46.0,-100.00,North,5,3.0,7.0,70,0.00,,,0.00,550.000000,,2013-05-31 19:11:00,
2013-05-31 11:21:00,56.0,46.0,-100.00,North,5,3.0,7.0,70,0.00,,,0.00,550.000000,,2013-05-31 19:21:00,
2013-05-31 11:52:00,56.0,46.0,-100.00,NNW,337,5.0,9.0,70,0.00,,,0.00,581.000000,,2013-05-31 19:52:00,
2013-05-31 12:01:00,56.0,46.0,-100.00,NNW,337,5.0,9.0,70,0.00,,,0.00,581.000000,,2013-05-31 20:01:00,
2013-05-31 12:11:00,56.0,46.0,-100.00,NNW,337,5.0,9.0,70,0.00,,,0.00,581.000000,,2013-05-31 20:11:00,
2013-05-31 12:22:00,56.0,46.0,-100.00,NNW,337,5.0,9.0,70,0.00,,,0.00,581.000000,,2013-05-31 20:22:00,
2013-05-31 12:52:00,58.0,45.0,-100.00,NE,54,4.0,10.0,63,0.00,,,0.00,720.000000,,2013-05-31 20:52:00,
2013-05-31 13:01:00,58.0,45.0,-100.00,NE,54,4.0,10.0,63,0.00,,,0.00,720.000000,,2013-05-31 21:01:00,
2013-05-31 13:11:00,58.0,45.0,-100.00,NE,54,4.0,10.0,63,0.00,,,0.00,720.000000,,2013-05-31 21:11:00,
2013-05-31 13:22:00,58.0,45.0,-100.00,NE,54,4.0,10.0,63,0.00,,,0.00,720.000000,,2013-05-31 21:22:00,
2013-05-31 13:54:00,60.0,45.0,-100.00,North,11,4.0,11.0,57,0.00,,,0.00,748.000000,,2013-05-31 21:54:00,
2013-05-31 14:02:00,60.0,45.0,-100.00,North,11,4.0,11.0,57,0.00,,,0.00,748.000000,,2013-05-31 22:02:00,
2013-05-31 14:12:00,60.0,45.0,-100.00,North,11,4.0,11.0,57,0.00,,,0.00,748.000000,,2013-05-31 22:12:00,
2013-05-31 14:22:00,60.0,45.0,-100.00,North,11,4.0,11.0,57,0.00,,,0.00,748.000000,,2013-05-31 22:22:00,
2013-05-31 14:53:00,62.0,46.0,-100.00,North,355,4.0,11.0,56,0.00,,,0.00,793.000000,,2013-05-31 22:53:00,
2013-05-31 15:02:00,62.0,46.0,-100.00,North,355,4.0,11.0,56,0.00,,,0.00,793.000000,,2013-05-31 23:02:00,
2013-05-31 15:12:00,62.0,46.0,-100.00,North,355,4.0,11.0,56,0.00,,,0.00,793.000000,,2013-05-31 23:12:00,
2013-05-31 15:21:00,62.0,46.0,-100.00,North,355,4.0,11.0,56,0.00,,,0.00,793.000000,,2013-05-31 23:21:00,
2013-05-31 15:52:00,62.0,46.0,-100.00,North,7,5.0,10.0,55,0.00,,,0.00,752.000000,,2013-05-31 23:52:00,
2013-05-31 16:01:00,62.0,46.0,-100.00,North,7,5.0,10.0,55,0.00,,,0.00,752.000000,,2013-06-01 00:01:00,
2013-05-31 16:11:00,62.0,46.0,-100.00,North,7,5.0,10.0,55,0.00,,,0.00,752.000000,,2013-06-01 00:11:00,
2013-05-31 16:22:00,62.0,46.0,-100.00,North,7,5.0,10.0,55,0.00,,,0.00,752.000000,,2013-06-01 00:22:00,
2013-05-31 16:52:00,61.0,46.0,-100.00,North,11,6.0,10.0,58,0.00,,,0.00,641.000000,,2013-06-01 00:52:00,
2013-05-31 17:01:00,61.0,46.0,-100.00,North,11,6.0,10.0,58,0.00,,,0.00,641.000000,,2013-06-01 01:01:00,
2013-05-31 17:11:00,61.0,46.0,-100.00,North,11,6.0,10.0,58,0.00,,,0.00,641.000000,,2013-06-01 01:11:00,
2013-05-31 17:21:00,61.0,46.0,-100.00,North,11,6.0,10.0,58,0.00,,,0.00,641.000000,,2013-06-01 01:21:00,
2013-05-31 17:52:00,62.0,46.0,-100.00,North,2,4.0,10.0,56,0.00,,,0.00,581.000000,,2013-06-01 01:52:00,
2013-05-31 18:01:00,62.0,46.0,-100.00,North,2,4.0,10.0,56,0.00,,,0.00,581.000000,,2013-06-01 02:01:00,
2013-05-31 18:11:00,62.0,46.0,-100.00,North,2,4.0,10.0,56,0.00,,,0.00,581.000000,,2013-06-01 02:11:00,
2013-05-31 18:21:00,62.0,46.0,-100.00,North,2,4.0,10.0,56,0.00,,,0.00,581.000000,,2013-06-01 02:21:00,
2013-05-31 18:52:00,62.0,46.0,-100.00,North,8,5.0,9.0,55,0.00,,,0.00,493.000000,,2013-06-01 02:52:00,
2013-05-31 19:01:00,62.0,46.0,-100.00,North,8,5.0,9.0,55,0.00,,,0.00,493.000000,,2013-06-01 03:01:00,
2013-05-31 19:11:00,62.0,46.0,-100.00,North,8,5.0,9.0,55,0.00,,,0.00,493.000000,,2013-06-01 03:11:00,
2013-05-31 19:21:00,62.0,46.0,-100.00,North,8,5.0,9.0,55,0.00,,,0.00,493.000000,,2013-06-01 03:21:00,
2013-05-31 19:53:00,60.0,45.0,-100.00,North,353,3.0,9.0,58,0.00,,,0.00,289.000000,,2013-06-01 03:53:00,
2013-05-31 20:02:00,60.0,45.0,-100.00,North,353,3.0,9.0,58,0.00,,,0.00,289.000000,,2013-06-01 04:02:00,
2013-05-31 20:12:00,60.0,45.0,-100.00,North,353,3.0,9.0,58,0.00,,,0.00,289.000000,,2013-06-01 04:12:00,
2013-05-31 20:23:00,60.0,45.0,-100.00,North,353,3.0,9.0,58,0.00,,,0.00,289.000000,,2013-06-01 04:23:00,
2013-05-31 20:53:00,58.0,45.0,-100.00,ENE,61,2.0,8.0,63,0.00,,,0.00,147.000000,,2013-06-01 04:53:00,
2013-05-31 21:02:00,58.0,45.0,-100.00,ENE,61,2.0,8.0,63,0.00,,,0.00,147.000000,,2013-06-01 05:02:00,
2013-05-31 21:12:00,58.0,45.0,-100.00,ENE,61,2.0,8.0,63,0.00,,,0.00,147.000000,,2013-06-01 05:12:00,
2013-05-31 21:22:00,58.0,45.0,-100.00,ENE,61,2.0,8.0,63,0.00,,,0.00,147.000000,,2013-06-01 05:22:00,
2013-05-31 21:52:00,53.0,43.0,-100.00,East,97,1.0,5.0,70,0.00,,,0.00,66.000000,,2013-06-01 05:52:00,
2013-05-31 22:01:00,53.0,43.0,-100.00,East,97,1.0,5.0,70,0.00,,,0.00,66.000000,,2013-06-01 06:01:00,
2013-05-31 22:12:00,53.0,43.0,-100.00,East,97,1.0,5.0,70,0.00,,,0.00,66.000000,,2013-06-01 06:12:00,
2013-05-31 22:22:00,53.0,43.0,-100.00,East,97,1.0,5.0,70,0.00,,,0.00,66.000000,,2013-06-01 06:22:00,
2013-05-31 22:52:00,49.0,43.0,-100.00,East,94,1.0,4.0,81,0.00,,,0.00,32.000000,,2013-06-01 06:52:00,
2013-05-31 23:01:00,49.0,43.0,-100.00,East,94,1.0,4.0,81,0.00,,,0.00,32.000000,,2013-06-01 07:01:00,
2013-05-31 23:11:00,49.0,43.0,-100.00,East,94,1.0,4.0,81,0.00,,,0.00,32.000000,,2013-06-01 07:11:00,
2013-05-31 23:21:00,49.0,43.0,-100.00,East,94,1.0,4.0,81,0.00,,,0.00,32.000000,,2013-06-01 07:21:00,
2013-05-31 23:52:00,46.0,44.0,-100.00,ESE,103,1.0,2.0,92,0.00,,,0.00,12.000000,,2013-06-01 07:52:00,